This is the latest recevied weather packets stored in our database for station/object WX1NWA. If no packets are shown the sender has not sent any weather packets the latest 10 day(s).
| Time | Temp. | Humidity | Pressure | Rain* | Wind** | Luminosity | Snow |
|---|---|---|---|---|---|---|---|
| 1777160004 | 17.22° C | 87% | 1011.9 hPa | 0 mm | - | 16 W/m² | - |
| 1777159699 | 17.22° C | 86% | 1011.8 hPa | 0 mm | - | 16 W/m² | - |
| 1777159395 | 17.22° C | 87% | 1011.7 hPa | 0 mm | - | 22 W/m² | - |
| 1777159092 | 17.22° C | 86% | 1012.1 hPa | 0 mm | - | 27 W/m² | - |
| 1777158789 | 17.22° C | 86% | 1012 hPa | 0 mm | - | 31 W/m² | - |
| 1777158488 | 17.78° C | 86% | 1012 hPa | 0 mm | - | 39 W/m² | - |
| 1777158183 | 17.78° C | 85% | 1012.1 hPa | 0 mm | - | 46 W/m² | - |
| 1777157879 | 17.78° C | 85% | 1012.2 hPa | 0 mm | - | 57 W/m² | - |
| 1777157575 | 17.78° C | 85% | 1012.2 hPa | 0 mm | - | 80 W/m² | - |
| 1777157271 | 17.78° C | 85% | 1012.1 hPa | 0 mm | - | 81 W/m² | - |
| 1777156971 | 17.78° C | 85% | 1011.7 hPa | 0 mm | - | 63 W/m² | - |
| 1777156671 | 17.78° C | 84% | 1012.3 hPa | 0 mm | - | 39 W/m² | - |
| 1777156368 | 18.33° C | 84% | 1012.3 hPa | 0 mm | - | 57 W/m² | - |
| 1777156065 | 18.33° C | 84% | 1012.4 hPa | 0 mm | - | 64 W/m² | - |
| 1777155761 | 18.33° C | 85% | 1012.4 hPa | 0 mm | - | 49 W/m² | - |
| 1777155457 | 18.33° C | 84% | 1012.7 hPa | 0 mm | - | 183 W/m² | - |
| 1777155154 | 18.33° C | 84% | 1012.4 hPa | 0 mm | - | 63 W/m² | - |
| 1777154851 | 18.33° C | 84% | 1012.5 hPa | 0 mm | - | 120 W/m² | - |
| 1777154548 | 18.33° C | 85% | 1012.9 hPa | 0 mm | - | 97 W/m² | - |
| 1777154243 | 18.33° C | 84% | 1012.9 hPa | 0 mm | - | 76 W/m² | - |
| 1777153940 | 18.89° C | 83% | 1012.8 hPa | 0 mm | - | 104 W/m² | - |
| 1777153636 | 18.89° C | 84% | 1012.8 hPa | 0 mm | - | 264 W/m² | - |
| 1777153332 | 18.89° C | 83% | 1012.8 hPa | 0 mm | - | 174 W/m² | - |
| 1777153029 | 18.89° C | 83% | 1013 hPa | 0 mm | - | 214 W/m² | - |
| 1777152725 | 18.89° C | 83% | 1013 hPa | 0 mm | - | 399 W/m² | - |
* Rain latest hour (hover to see other rain measurements)
** Current wind speed in m/s (hover to see current wind gust speed)